FW0639 Weather Reports


Display with metric or nautical units.
time (UTC)temp
F
wind
direction
speed
MPH
gust
MPH
rain 1hr
in
rain 24hr
in
rain mn
in
humidity
%
barometer
mb
20260905185246 69 350 0.0 0.0 0.00 0.00 0.00 49 1014.6
20260905184213 69 342 0.0 4.0 0.00 0.00 0.00 49 1014.6
20260905183237 68 340 0.0 2.0 0.00 0.00 0.00 49 1014.7
20260905182221 69 342 1.0 3.0 0.00 0.00 0.00 50 1014.7
20260905181211 68 340 0.0 1.0 0.00 0.00 0.00 52 1014.7
20260905180152 67 328 0.0 3.0 0.00 0.00 0.00 52 1014.9
20260905175203 66 328 0.0 3.0 0.00 0.00 0.00 52 1014.9
20260905174140 66 328 0.0 4.0 0.00 0.00 0.00 52 1015.1
20260905172016 64 332 1.0 6.0 0.00 0.00 0.00 57 1015.2
20260905171013 62 332 0.0 4.0 0.00 0.00 0.00 57 1015.2
20260905165950 61 332 0.0 1.0 0.00 0.00 0.00 59 1015.4
20260905164954 60 332 0.0 2.0 0.00 0.00 0.00 61 1015.3
20260905161625 58 332 0.0 4.0 0.00 0.00 0.00 64 1015.4
20260905160557 57 332 0.0 3.0 0.00 0.00 0.00 68 1015.2
20260905155534 56 332 0.0 0.0 0.00 0.00 0.00 69 1015.2
20260905153426 53 332 0.0 0.0 0.00 0.00 0.00 73 1015.2
20260905152357 53 332 0.0 0.0 0.00 0.00 0.00 76 1015.2
20260905151405 52 332 0.0 0.0 0.00 0.00 0.00 77 1015.2
20260905150348 51 332 0.0 0.0 0.00 0.00 0.00 77 1015.3
20260905145316 50 332 0.0 0.0 0.00 0.00 0.00 77 1015.2
20260905144320 49 332 0.0 0.0 0.00 0.00 0.00 80 1015.1
20260905143248 48 335 0.0 0.0 0.00 0.00 0.00 82 1015.1
20260905142216 47 335 0.0 0.0 0.00 0.00 0.00 83 1015.0
20260905141224 46 356 0.0 0.0 0.00 0.00 0.00 82 1014.8
20260905140157 46 356 0.0 0.0 0.00 0.00 0.00 82 1014.6
20260905135211 45 356 0.0 0.0 0.00 0.00 0.00 82 1014.6
20260905134137 45 356 0.0 0.0 0.00 0.00 0.00 82 1014.2
20260905133125 45 356 0.0 0.0 0.00 0.00 0.00 81 1014.1
20260905132102 45 356 0.0 0.0 0.00 0.00 0.00 80 1014.1
20260905131047 45 356 0.0 0.0 0.00 0.00 0.00 80 1013.9
20260905130033 46 356 0.0 0.0 0.00 0.00 0.00 80 1013.5
20260905125008 46 340 0.0 0.0 0.00 0.00 0.00 79 1013.2
20260905124022 46 340 0.0 0.0 0.00 0.00 0.00 78 1013.2
20260905122959 47 339 0.0 0.0 0.00 0.00 0.00 77 1013.0
20260905121959 47 340 0.0 0.0 0.00 0.00 0.00 76 1012.9
20260905121004 47 339 0.0 0.0 0.00 0.00 0.00 76 1013.0
20260905115940 48 339 0.0 0.0 0.00 0.00 0.00 75 1013.2
20260905114957 48 338 0.0 0.0 0.00 0.00 0.00 75 1013.4
20260905114000 48 338 0.0 0.0 0.00 0.00 0.00 73 1013.5
20260905113013 49 337 0.0 0.0 0.00 0.00 0.00 73 1013.3
20260905112012 49 337 0.0 0.0 0.00 0.00 0.00 72 1013.0
20260905105853 50 337 0.0 0.0 0.00 0.00 0.00 70 1012.4
20260905102550 51 336 0.0 0.0 0.00 0.00 0.00 66 1011.5
20260905100427 53 334 0.0 0.0 0.00 0.00 0.00 63 1011.2
20260905094211 54 334 0.0 0.0 0.00 0.00 0.00 59 1010.9
20260905093148 55 333 0.0 0.0 0.00 0.00 0.00 58 1011.0
20260905092155 56 333 0.0 0.0 0.00 0.00 0.00 57 1011.1
20260905091202 56 333 0.0 2.0 0.00 0.00 0.00 57 1011.2
20260905090155 57 332 0.0 0.0 0.00 0.00 0.00 56 1011.1
20260905085137 57 332 0.0 0.0 0.00 0.00 0.00 57 1011.1
20260905084110 57 332 0.0 3.0 0.00 0.00 0.00 56 1011.4
20260905083123 57 332 0.0 0.0 0.00 0.00 0.00 56 1011.1
20260905082127 57 332 0.0 0.0 0.00 0.00 0.00 56 1011.0
20260905081119 58 332 0.0 0.0 0.00 0.00 0.00 56 1010.8
20260905080106 58 332 0.0 0.0 0.00 0.00 0.00 56 1011.4
20260905075111 57 332 1.0 7.0 0.00 0.00 0.00 55 1011.7
20260905074118 57 332 0.0 2.0 0.00 0.00 0.00 56 1011.5
20260905073051 57 332 0.0 0.0 0.00 0.00 0.00 56 1011.2
20260905072046 57 332 0.0 0.0 0.00 0.00 0.00 56 1011.0
20260905071058 57 332 0.0 3.0 0.00 0.00 0.00 56 1011.2
20260905070049 57 332 0.0 2.0 0.00 0.00 0.00 57 1011.0
20260905065034 57 332 0.0 0.0 0.00 0.00 0.00 60 1010.8
20260905064018 57 332 0.0 0.0 0.00 0.00 0.00 57 1011.0
20260905063006 57 332 0.0 0.0 0.00 0.00 0.00 58 1010.3
20260905061952 58 332 0.0 0.0 0.00 0.00 0.00 55 1010.8
20260905060935 58 332 0.0 0.0 0.00 0.00 0.00 55 1010.5
20260905055936 58 332 0.0 1.0 0.00 0.00 0.00 55 1010.0
20260905055000 57 332 0.0 3.0 0.00 0.00 0.00 56 1010.5
20260905053933 57 332 0.0 0.0 0.00 0.00 0.00 59 1009.8
20260905052859 57 332 0.0 0.0 0.00 0.00 0.00 59 1009.7
20260905051913 57 332 0.0 2.0 0.00 0.00 0.00 59 1009.6
20260905050924 57 332 0.0 0.0 0.00 0.00 0.00 60 1009.3
20260905045907 58 332 0.0 0.0 0.00 0.00 0.00 58 1009.6
20260905043759 59 332 0.0 2.0 0.00 0.00 0.00 56 1009.4
20260905042756 60 332 0.0 0.0 0.00 0.00 0.00 55 1008.9
20260905041745 61 332 0.0 1.0 0.00 0.00 0.00 51 1008.9
20260905040712 62 332 0.0 0.0 0.00 0.00 0.00 50 1009.0
20260905035735 63 332 0.0 0.0 0.00 0.00 0.00 50 1008.9
20260905034723 64 332 0.0 0.0 0.00 0.00 0.00 46 1008.7
20260905033712 65 332 0.0 0.0 0.00 0.00 0.00 45 1008.4
20260905032707 65 332 0.0 1.0 0.00 0.00 0.00 44 1008.1
20260905031646 66 332 0.0 2.0 0.00 0.00 0.00 44 1008.0
20260905030637 66 332 0.0 0.0 0.00 0.00 0.00 43 1008.0
20260905025648 66 332 0.0 0.0 0.00 0.00 0.00 43 1008.0
20260905024712 66 332 0.0 0.0 0.00 0.00 0.00 44 1007.8
20260905023646 67 332 0.0 0.0 0.00 0.00 0.00 43 1007.8
20260905021505 68 332 0.0 0.0 0.00 0.00 0.00 42 1007.3
20260905020509 69 332 0.0 1.0 0.00 0.00 0.00 40 1007.2
20260905015512 69 332 0.0 0.0 0.00 0.00 0.00 40 1007.0
20260905013307 71 332 0.0 0.0 0.00 0.00 0.00 38 1006.4
20260905012236 72 332 0.0 2.0 0.00 0.00 0.00 36 1006.3
20260905011248 73 332 0.0 4.0 0.00 0.00 0.00 35 1006.1
20260905005119 75 332 1.0 7.0 0.00 0.00 0.00 32 1005.7
20260905004110 75 340 1.0 6.0 0.00 0.00 0.00 34 1005.5
20260905003112 75 340 1.0 4.0 0.00 0.00 0.00 35 1005.6
20260905000939 75 342 1.0 9.0 0.00 0.00 0.00 33 1005.4
20260904235921 75 345 1.0 9.0 0.00 0.00 0.00 35 1005.2
20260904234945 76 342 1.0 7.0 0.00 0.00 0.00 35 1005.1
20260904233948 76 347 1.0 7.0 0.00 0.00 0.00 33 1005.0
20260904232922 77 3 1.0 5.0 0.00 0.00 0.00 32 1004.9
20260904230843 78 280 1.0 7.0 0.00 0.00 0.00 33 1004.7
20260904225809 79 49 2.0 10.0 0.00 0.00 0.00 31 1004.7
20260904224746 79 128 2.0 10.0 0.00 0.00 0.00 32 1004.5
20260904223801 79 272 1.0 8.0 0.00 0.00 0.00 33 1004.5
20260904220558 80 148 1.0 9.0 0.00 0.00 0.00 32 1004.1
20260904215621 80 336 2.0 6.0 0.00 0.00 0.00 30 1004.0
20260904214620 80 328 1.0 8.0 0.00 0.00 0.00 28 1003.8
20260904213614 80 359 2.0 8.0 0.00 0.00 0.00 31 1003.7
20260904212541 80 328 1.0 9.0 0.00 0.00 0.00 30 1003.7
20260904211527 80 195 1.0 9.0 0.00 0.00 0.00 30 1003.6
20260904210546 81 178 2.0 8.0 0.00 0.00 0.00 29 1003.5
20260904205543 81 344 1.0 8.0 0.00 0.00 0.00 30 1003.4
20260904204602 81 340 1.0 8.0 0.00 0.00 0.00 30 1003.3
20260904203548 81 289 1.0 4.0 0.00 0.00 0.00 31 1003.2
20260904202544 81 288 1.0 6.0 0.00 0.00 0.00 29 1003.3
20260904201513 82 279 1.0 6.0 0.00 0.00 0.00 29 1003.4
20260904195313 83 328 1.0 4.0 0.00 0.00 0.00 27 1003.2
20260904194311 82 342 0.0 3.0 0.00 0.00 0.00 29 1003.2
20260904191016 81 161 1.0 7.0 0.00 0.00 0.00 30 1003.3